Concord, NC

6:50 PM EDT on March 25, 2017 (GMT -0400)
Concord Regional

Weather History for KJQF - June, 2013

Change the Weather History Date:

Friday, June 7, 2013

  Actual Average (KCLT) Record (KCLT)
Temperature  
Mean Temperature 74 °F -  
Max Temperature 82 °F 83 °F 97 °F (1899)
Min Temperature 66 °F 62 °F 45 °F (2000)
Cooling Degree Days 9    
Growing Degree Days 24 (Base 50)    
Moisture  
Dew Point 66 °F    
Average Humidity 90    
Maximum Humidity 100    
Minimum Humidity 62    
Precipitation  
Precipitation 0.29 in - - ()
Sea Level Pressure  
Sea Level Pressure 29.78 in    
Wind  
Wind Speed 3 mph (North)    
Max Wind Speed 10 mph    
Max Gust Speed 16 mph    
Visibility 8 miles    
Events Rain , Thunderstorm    
Averages and records for this station are not official NWS values.
T = Trace of Precipitation, MM = Missing Value Source: NWS Daily Summary

Daily Weather History Graph

Daily Weather History Graph

Search for Another Location

Airport or City:

Trip Planner

Search our weather history database for the weather conditions in past years. The results will help you decide how hot, cold, wet, or windy it might be!

Date:

Astronomy

Jun. 07, 2013 Rise Set
Actual Time 6:07 AM EDT 8:36 PM EDT
Civil Twilight 5:37 AM EDT 9:05 PM EDT
Nautical Twilight 5:01 AM EDT 9:42 PM EDT
Astronomical Twilight 4:21 AM EDT 10:22 PM EDT
Moon 5:26 AM EDT (6/7) 7:50 PM EDT (6/7)
Length of Visible Light 15h 27m
Length of Day
14h 28m
Waning Crescent, 1% of the Moon is Illuminated
Jun 7
Waning Crescent
Jun 8
New
Jun 16
First Quarter
Jun 23
Full
Jun 30
Last Quarter

Hourly Weather History & Observations

Time (EDT) Temp. Heat Index Dew Point Humidity Pressure Visibility Wind Dir Wind Speed Gust Speed Precip Events Conditions
12:15 AM 68.0 °F - 66.2 °F 94% 29.87 in 7.0 mi Calm Calm - N/A Rain Light Rain
12:35 AM 68.0 °F - 66.2 °F 94% 29.87 in 7.0 mi Calm Calm - 0.01 in Rain Rain
12:55 AM 68.0 °F - 66.2 °F 94% 29.86 in 7.0 mi Calm Calm - 0.03 in Rain Light Rain
1:15 AM 68.0 °F - 66.2 °F 94% 29.85 in 7.0 mi Calm Calm - 0.01 in Rain Light Rain
1:35 AM 68.0 °F - 66.2 °F 94% 29.84 in 5.0 mi Calm Calm - 0.04 in Rain Rain
1:55 AM 68.0 °F - 66.2 °F 94% 29.83 in 7.0 mi Calm Calm - 0.06 in Rain Light Rain
2:15 AM 68.0 °F - 66.2 °F 94% 29.82 in 10.0 mi Calm Calm - N/A Rain Rain
2:35 AM 68.0 °F - 68.0 °F 100% 29.81 in 10.0 mi NNE 3.5 mph - 0.01 in   Light Drizzle
2:55 AM 68.0 °F - 66.2 °F 94% 29.79 in 10.0 mi Calm Calm - 0.01 in   Mostly Cloudy
3:15 AM 68.0 °F - 66.2 °F 94% 29.78 in 10.0 mi NE 3.5 mph - N/A Rain Light Rain
3:35 AM 68.0 °F - 66.2 °F 94% 29.77 in 10.0 mi NNE 3.5 mph - N/A   Overcast
3:55 AM 68.0 °F - 66.2 °F 94% 29.76 in 10.0 mi North 4.6 mph - N/A   Overcast
4:15 AM 68.0 °F - 66.2 °F 94% 29.75 in 10.0 mi Calm Calm - N/A Rain Light Rain
4:35 AM 68.0 °F - 66.2 °F 94% 29.74 in 10.0 mi North 3.5 mph - N/A Rain Light Rain
4:55 AM 68.0 °F - 66.2 °F 94% 29.74 in 10.0 mi North 5.8 mph - N/A   Overcast
5:15 AM 68.0 °F - 66.2 °F 94% 29.73 in 10.0 mi North 6.9 mph - N/A   Overcast
5:35 AM 68.0 °F - 66.2 °F 94% 29.73 in 10.0 mi North 3.5 mph - N/A Rain Rain
5:55 AM 68.0 °F - 66.2 °F 94% 29.73 in 10.0 mi North 4.6 mph - N/A   Drizzle
6:15 AM 68.0 °F - 66.2 °F 94% 29.73 in 10.0 mi North 5.8 mph - 0.01 in   Drizzle
6:35 AM 68.0 °F - 66.2 °F 94% 29.72 in 10.0 mi NNE 6.9 mph - 0.01 in   Overcast
6:55 AM 68.0 °F - 66.2 °F 94% 29.71 in 10.0 mi North 6.9 mph - 0.01 in   Overcast
7:15 AM 68.0 °F - 66.2 °F 94% 29.71 in 7.0 mi NNE 6.9 mph - N/A Rain Light Rain
7:35 AM 68.0 °F - 66.2 °F 94% 29.70 in 10.0 mi North 8.1 mph - N/A   Overcast
7:55 AM 69.8 °F - 66.2 °F 88% 29.70 in 7.0 mi NNE 9.2 mph - N/A   Overcast
8:55 AM 69.8 °F - 66.2 °F 88% 29.69 in 5.0 mi NNE 10.4 mph - N/A   Overcast
9:55 AM 69.8 °F - 68.0 °F 94% 29.69 in 4.0 mi North 10.4 mph - N/A   Overcast
10:57 AM 71.6 °F - 68.0 °F 88% 29.69 in 7.0 mi North 8.1 mph 16.1 mph N/A   Overcast
11:55 AM 71.6 °F - 68.0 °F 88% 29.69 in 10.0 mi NNW 9.2 mph - N/A Rain Light Rain
12:55 PM 71.6 °F - 68.0 °F 88% 29.70 in 10.0 mi NNW 6.9 mph - N/A   Mostly Cloudy
1:55 PM 75.2 °F - 68.0 °F 78% 29.71 in 10.0 mi NW 9.2 mph - N/A   Overcast
2:55 PM 78.8 °F - 66.2 °F 65% 29.71 in 10.0 mi WNW 8.1 mph - N/A   Scattered Clouds
3:55 PM 75.2 °F - 68.0 °F 78% 29.72 in 7.0 mi Calm Calm - N/A   Mostly Cloudy
4:55 PM 78.8 °F - 71.6 °F 78% 29.73 in 7.0 mi Calm Calm - N/A   Scattered Clouds
5:55 PM 82.4 °F 85.4 °F 68.0 °F 62% 29.74 in 10.0 mi WSW 9.2 mph - N/A   Scattered Clouds
6:55 PM 80.6 °F 83.9 °F 69.8 °F 70% 29.76 in 10.0 mi SW 5.8 mph - N/A   Scattered Clouds
7:55 PM 78.8 °F - 69.8 °F 74% 29.79 in 5.0 mi SW 10.4 mph - N/A Thunderstorm Thunderstorm
8:55 PM 66.2 °F - 64.4 °F 94% 29.84 in 5.0 mi Calm Calm - N/A   Overcast
9:15 PM 66.2 °F - 64.4 °F 94% 29.84 in 5.0 mi South 3.5 mph - 0.03 in Rain Rain
9:35 PM 66.2 °F - 64.4 °F 94% 29.85 in 7.0 mi Calm Calm - 0.03 in Rain , Thunderstorm Light Thunderstorms and Rain
9:55 PM 66.2 °F - 64.4 °F 94% 29.86 in 10.0 mi Calm Calm - 0.03 in   Clear
10:15 PM 68.0 °F - 64.4 °F 88% 29.87 in 7.0 mi Calm Calm - 0.01 in Rain Light Rain
10:35 PM 68.0 °F - 64.4 °F 88% 29.89 in 7.0 mi SW 4.6 mph - 0.03 in Rain Rain
10:55 PM 68.0 °F - 64.4 °F 88% 29.89 in 7.0 mi SW 3.5 mph - 0.06 in Rain Rain
11:15 PM 68.0 °F - 66.2 °F 94% 29.90 in 7.0 mi Calm Calm - 0.03 in Rain , Thunderstorm Thunderstorms and Rain
11:35 PM 68.0 °F - 66.2 °F 94% 29.89 in 3.0 mi Calm Calm - 0.09 in Rain , Thunderstorm Light Thunderstorms and Rain
11:55 PM 68.0 °F - 64.4 °F 88% 29.89 in 3.0 mi Calm Calm - 0.09 in Thunderstorm Overcast